Time,TemperatureF,DewpointF,PressureIn,WindDirection,WindDirectionDegrees,WindSpeedMPH,WindSpeedGustMPH,Humidity,HourlyPrecipIn,Conditions,Clouds,dailyrainin,SoftwareType,DateUTC
2013-03-04 00:01:00,59.9,44.2,29.80,SSE,154,16.0,17.0,56,0.00,,---,0.00,VWS V14.01,2013-03-04 06:01:00,
2013-03-04 00:06:00,59.8,44.1,29.80,South,185,9.0,20.0,56,0.00,,---,0.00,VWS V14.01,2013-03-04 06:06:00,
2013-03-04 00:12:00,59.6,43.9,29.80,South,180,5.0,18.0,56,0.00,,---,0.00,VWS V14.01,2013-03-04 06:12:00,
2013-03-04 00:17:00,59.5,43.8,29.79,SE,144,10.0,19.0,56,0.00,,---,0.00,VWS V14.01,2013-03-04 06:17:00,
2013-03-04 00:22:00,59.6,43.9,29.79,South,172,10.0,12.0,56,0.00,,---,0.00,VWS V14.01,2013-03-04 06:22:00,
2013-03-04 00:27:00,59.6,43.9,29.78,SSW,195,7.0,21.0,56,0.00,,---,0.00,VWS V14.01,2013-03-04 06:27:00,
2013-03-04 00:32:00,59.5,43.8,29.78,SSW,205,8.0,15.0,56,0.00,,---,0.00,VWS V14.01,2013-03-04 06:32:00,
2013-03-04 00:37:00,59.4,43.7,29.78,SSW,213,11.0,17.0,56,0.00,,---,0.00,VWS V14.01,2013-03-04 06:37:00,
2013-03-04 00:42:00,59.3,43.6,29.78,SSW,194,7.0,18.0,56,0.00,,---,0.00,VWS V14.01,2013-03-04 06:42:00,
2013-03-04 00:47:00,59.1,43.4,29.78,SSE,153,9.0,22.0,56,0.00,,---,0.00,VWS V14.01,2013-03-04 06:47:00,
2013-03-04 00:52:00,59.0,43.3,29.78,SSE,152,13.0,23.0,56,0.00,,---,0.00,VWS V14.01,2013-03-04 06:52:00,
2013-03-04 00:57:00,58.9,43.2,29.78,SSW,196,7.0,22.0,56,0.00,,---,0.00,VWS V14.01,2013-03-04 06:57:00,
2013-03-04 01:02:00,58.7,43.5,29.77,East,101,7.0,22.0,57,0.00,,---,0.00,VWS V14.01,2013-03-04 07:02:00,
2013-03-04 01:08:00,58.4,43.2,29.77,SSE,151,16.0,24.0,57,0.00,,---,0.00,VWS V14.01,2013-03-04 07:08:00,
2013-03-04 01:13:00,58.2,43.5,29.77,SW,229,6.0,18.0,58,0.00,,---,0.00,VWS V14.01,2013-03-04 07:13:00,
2013-03-04 01:18:00,58.0,43.3,29.77,SSE,163,12.0,16.0,58,0.00,,---,0.00,VWS V14.01,2013-03-04 07:18:00,
2013-03-04 01:23:00,57.9,43.2,29.77,SE,145,7.0,22.0,58,0.00,,---,0.00,VWS V14.01,2013-03-04 07:23:00,
2013-03-04 01:28:00,57.8,43.1,29.77,South,173,5.0,14.0,58,0.00,,---,0.00,VWS V14.01,2013-03-04 07:28:00,
2013-03-04 01:33:00,57.8,43.1,29.77,SSE,162,7.0,14.0,58,0.00,,---,0.00,VWS V14.01,2013-03-04 07:33:00,
2013-03-04 01:38:00,57.7,43.5,29.77,SSE,156,16.0,21.0,59,0.00,,---,0.00,VWS V14.01,2013-03-04 07:38:00,
2013-03-04 01:43:00,57.6,43.0,29.77,South,181,6.0,25.0,58,0.00,,---,0.00,VWS V14.01,2013-03-04 07:43:00,
2013-03-04 01:48:00,57.4,43.2,29.76,SSE,161,7.0,21.0,59,0.00,,---,0.00,VWS V14.01,2013-03-04 07:48:00,
2013-03-04 01:53:00,57.3,43.1,29.76,SE,144,7.0,14.0,59,0.00,,---,0.00,VWS V14.01,2013-03-04 07:53:00,
2013-03-04 01:58:00,57.2,43.0,29.76,South,186,14.0,16.0,59,0.00,,---,0.00,VWS V14.01,2013-03-04 07:58:00,
2013-03-04 02:04:00,57.1,43.4,29.76,South,175,6.0,8.0,60,0.00,,---,0.00,VWS V14.01,2013-03-04 08:04:00,
2013-03-04 02:09:00,57.0,43.3,29.76,SW,215,8.0,22.0,60,0.00,,---,0.00,VWS V14.01,2013-03-04 08:09:00,
2013-03-04 02:14:00,56.9,43.6,29.76,South,172,9.0,25.0,61,0.00,,---,0.00,VWS V14.01,2013-03-04 08:14:00,
2013-03-04 02:19:00,56.9,43.6,29.76,SSE,164,5.0,18.0,61,0.00,,---,0.00,VWS V14.01,2013-03-04 08:19:00,
2013-03-04 02:24:00,56.8,43.5,29.76,South,169,8.0,13.0,61,0.00,,---,0.00,VWS V14.01,2013-03-04 08:24:00,
2013-03-04 02:29:00,56.7,43.4,29.76,South,176,9.0,16.0,61,0.00,,---,0.00,VWS V14.01,2013-03-04 08:29:00,
2013-03-04 02:34:00,56.7,43.4,29.75,SSE,162,10.0,18.0,61,0.00,,---,0.00,VWS V14.01,2013-03-04 08:34:00,
2013-03-04 02:39:00,56.7,43.8,29.75,SSW,193,14.0,19.0,62,0.00,,---,0.00,VWS V14.01,2013-03-04 08:39:00,
2013-03-04 02:44:00,56.5,43.7,29.75,South,188,4.0,13.0,62,0.00,,---,0.00,VWS V14.01,2013-03-04 08:44:00,
2013-03-04 02:49:00,56.6,44.2,29.75,SSW,205,13.0,27.0,63,0.00,,---,0.00,VWS V14.01,2013-03-04 08:49:00,
2013-03-04 02:54:00,56.5,44.1,29.75,South,188,7.0,15.0,63,0.00,,---,0.00,VWS V14.01,2013-03-04 08:54:00,
2013-03-04 02:59:00,56.4,44.0,29.74,SSE,155,14.0,19.0,63,0.00,,---,0.00,VWS V14.01,2013-03-04 08:59:00,
2013-03-04 03:04:00,56.3,43.9,29.74,South,188,15.0,15.0,63,0.00,,---,0.00,VWS V14.01,2013-03-04 09:04:00,
2013-03-04 03:10:00,56.2,44.2,29.74,South,190,17.0,17.0,64,0.00,,---,0.00,VWS V14.01,2013-03-04 09:10:00,
2013-03-04 03:15:00,56.1,44.1,29.74,South,190,6.0,20.0,64,0.00,,---,0.00,VWS V14.01,2013-03-04 09:15:00,
2013-03-04 03:20:00,56.0,44.0,29.73,SSW,198,10.0,16.0,64,0.00,,---,0.00,VWS V14.01,2013-03-04 09:20:00,
2013-03-04 03:25:00,56.0,44.0,29.73,SE,146,10.0,19.0,64,0.00,,---,0.00,VWS V14.01,2013-03-04 09:25:00,
2013-03-04 03:30:00,56.0,44.4,29.73,South,169,9.0,18.0,65,0.00,,---,0.00,VWS V14.01,2013-03-04 09:30:00,
2013-03-04 03:35:00,55.9,43.9,29.73,SSW,213,14.0,15.0,64,0.00,,---,0.00,VWS V14.01,2013-03-04 09:35:00,
2013-03-04 03:40:00,55.9,44.3,29.73,South,188,10.0,15.0,65,0.00,,---,0.00,VWS V14.01,2013-03-04 09:40:00,
2013-03-04 03:45:00,55.8,44.2,29.73,South,190,17.0,18.0,65,0.00,,---,0.00,VWS V14.01,2013-03-04 09:45:00,
2013-03-04 03:50:00,55.7,44.1,29.73,SE,126,6.0,20.0,65,0.00,,---,0.00,VWS V14.01,2013-03-04 09:50:00,
2013-03-04 03:55:00,55.7,44.1,29.72,South,177,8.0,23.0,65,0.00,,---,0.00,VWS V14.01,2013-03-04 09:55:00,
2013-03-04 04:00:00,55.6,44.0,29.72,SSE,150,7.0,18.0,65,0.00,,---,0.00,VWS V14.01,2013-03-04 10:00:00,
2013-03-04 04:05:00,55.6,44.0,29.72,SSW,204,5.0,16.0,65,0.00,,---,0.00,VWS V14.01,2013-03-04 10:05:00,
2013-03-04 04:11:00,55.7,44.1,29.72,SSW,198,21.0,21.0,65,0.00,,---,0.00,VWS V14.01,2013-03-04 10:11:00,
2013-03-04 04:16:00,55.7,44.1,29.72,SW,217,7.0,14.0,65,0.00,,---,0.00,VWS V14.01,2013-03-04 10:16:00,
2013-03-04 04:21:00,55.6,44.0,29.72,South,181,11.0,12.0,65,0.00,,---,0.00,VWS V14.01,2013-03-04 10:21:00,
2013-03-04 04:26:00,55.7,44.1,29.72,SSE,167,10.0,18.0,65,0.00,,---,0.00,VWS V14.01,2013-03-04 10:26:00,
2013-03-04 04:31:00,55.7,44.1,29.73,SSE,155,8.0,16.0,65,0.00,,---,0.00,VWS V14.01,2013-03-04 10:31:00,
2013-03-04 04:36:00,55.7,43.7,29.73,South,185,19.0,21.0,64,0.00,,---,0.00,VWS V14.01,2013-03-04 10:36:00,
2013-03-04 04:41:00,55.7,43.7,29.73,SW,234,13.0,14.0,64,0.00,,---,0.00,VWS V14.01,2013-03-04 10:41:00,
2013-03-04 04:46:00,55.7,43.7,29.73,SW,222,20.0,20.0,64,0.00,,---,0.00,VWS V14.01,2013-03-04 10:46:00,
2013-03-04 04:51:00,55.7,43.7,29.73,South,169,2.0,16.0,64,0.00,,---,0.00,VWS V14.01,2013-03-04 10:51:00,
2013-03-04 04:56:00,55.7,43.7,29.72,South,180,20.0,20.0,64,0.00,,---,0.00,VWS V14.01,2013-03-04 10:56:00,
2013-03-04 05:01:00,55.7,43.7,29.73,SSW,209,16.0,20.0,64,0.00,,---,0.00,VWS V14.01,2013-03-04 11:01:00,
2013-03-04 05:06:00,55.8,43.8,29.72,SSE,159,7.0,15.0,64,0.00,,---,0.00,VWS V14.01,2013-03-04 11:06:00,
2013-03-04 05:11:00,55.8,44.2,29.73,SW,227,10.0,20.0,65,0.00,,---,0.00,VWS V14.01,2013-03-04 11:11:00,
2013-03-04 05:16:00,55.9,44.3,29.72,SSW,194,11.0,22.0,65,0.00,,---,0.00,VWS V14.01,2013-03-04 11:16:00,
2013-03-04 05:21:00,56.0,44.4,29.72,SSW,211,14.0,17.0,65,0.00,,---,0.00,VWS V14.01,2013-03-04 11:21:00,
2013-03-04 05:26:00,56.0,44.4,29.73,South,188,11.0,14.0,65,0.00,,---,0.00,VWS V14.01,2013-03-04 11:26:00,
2013-03-04 05:32:00,56.0,44.8,29.72,SE,146,7.0,20.0,66,0.00,,---,0.00,VWS V14.01,2013-03-04 11:32:00,
2013-03-04 05:37:00,56.0,44.8,29.73,South,182,8.0,17.0,66,0.00,,---,0.00,VWS V14.01,2013-03-04 11:37:00,
2013-03-04 05:42:00,56.0,44.8,29.72,South,175,8.0,13.0,66,0.00,,---,0.00,VWS V14.01,2013-03-04 11:42:00,
2013-03-04 05:47:00,56.0,45.2,29.72,SSW,209,10.0,13.0,67,0.00,,---,0.00,VWS V14.01,2013-03-04 11:47:00,
2013-03-04 05:52:00,56.0,45.2,29.72,SSE,165,10.0,13.0,67,0.00,,---,0.00,VWS V14.01,2013-03-04 11:52:00,
2013-03-04 05:57:00,56.0,45.2,29.72,South,180,12.0,15.0,67,0.00,,---,0.00,VWS V14.01,2013-03-04 11:57:00,
2013-03-04 06:02:00,56.0,45.6,29.72,SSW,203,8.0,16.0,68,0.00,,---,0.00,VWS V14.01,2013-03-04 12:02:00,
2013-03-04 06:07:00,56.0,45.6,29.71,SE,146,11.0,20.0,68,0.00,,---,0.00,VWS V14.01,2013-03-04 12:07:00,
2013-03-04 06:12:00,56.0,45.6,29.71,South,176,10.0,19.0,68,0.00,,---,0.00,VWS V14.01,2013-03-04 12:12:00,
2013-03-04 06:17:00,56.0,45.6,29.71,South,189,7.0,15.0,68,0.00,,---,0.00,VWS V14.01,2013-03-04 12:17:00,
2013-03-04 06:23:00,56.0,46.0,29.70,SSW,205,15.0,20.0,69,0.00,,---,0.00,VWS V14.01,2013-03-04 12:23:00,
2013-03-04 06:28:00,56.0,46.0,29.71,SSW,213,9.0,18.0,69,0.00,,---,0.00,VWS V14.01,2013-03-04 12:28:00,
2013-03-04 06:33:00,55.9,46.3,29.71,South,185,13.0,17.0,70,0.00,,---,0.00,VWS V14.01,2013-03-04 12:33:00,
2013-03-04 06:38:00,56.0,46.4,29.71,SSW,203,10.0,19.0,70,0.00,,---,0.00,VWS V14.01,2013-03-04 12:38:00,
2013-03-04 06:43:00,56.0,46.4,29.70,SSW,197,7.0,20.0,70,0.00,,---,0.00,VWS V14.01,2013-03-04 12:43:00,
2013-03-04 06:48:00,55.9,46.3,29.70,SSW,213,2.0,15.0,70,0.00,,---,0.00,VWS V14.01,2013-03-04 12:48:00,
2013-03-04 06:53:00,55.9,46.7,29.71,South,179,12.0,17.0,71,0.00,,---,0.00,VWS V14.01,2013-03-04 12:53:00,
2013-03-04 06:58:00,55.9,46.7,29.71,SSW,196,7.0,16.0,71,0.00,,---,0.00,VWS V14.01,2013-03-04 12:58:00,
2013-03-04 07:03:00,55.9,46.7,29.71,South,180,14.0,22.0,71,0.00,,---,0.00,VWS V14.01,2013-03-04 13:03:00,
2013-03-04 07:08:00,55.9,47.0,29.71,SSW,206,9.0,23.0,72,0.00,,---,0.00,VWS V14.01,2013-03-04 13:08:00,
2013-03-04 07:13:00,55.9,47.0,29.71,South,184,9.0,21.0,72,0.00,,---,0.00,VWS V14.01,2013-03-04 13:13:00,
2013-03-04 07:18:00,55.9,47.0,29.71,South,182,13.0,21.0,72,0.00,,---,0.00,VWS V14.01,2013-03-04 13:18:00,
2013-03-04 07:23:00,55.9,47.0,29.70,SSE,147,6.0,17.0,72,0.00,,---,0.00,VWS V14.01,2013-03-04 13:23:00,
2013-03-04 07:29:00,56.0,47.1,29.70,SW,227,9.0,24.0,72,0.00,,---,0.00,VWS V14.01,2013-03-04 13:29:00,
2013-03-04 07:34:00,56.0,47.1,29.70,South,183,12.0,16.0,72,0.00,,---,0.00,VWS V14.01,2013-03-04 13:34:00,
2013-03-04 07:39:00,56.0,47.1,29.70,South,184,10.0,20.0,72,0.00,,---,0.00,VWS V14.01,2013-03-04 13:39:00,
2013-03-04 07:44:00,56.0,47.5,29.70,WSW,239,8.0,17.0,73,0.00,,---,0.00,VWS V14.01,2013-03-04 13:44:00,
2013-03-04 07:49:00,56.1,47.6,29.70,SSW,213,9.0,13.0,73,0.00,,---,0.00,VWS V14.01,2013-03-04 13:49:00,
2013-03-04 07:54:00,56.2,47.7,29.70,SSW,200,14.0,17.0,73,0.00,,---,0.00,VWS V14.01,2013-03-04 13:54:00,
2013-03-04 07:59:00,56.2,47.3,29.70,SSW,192,6.0,16.0,72,0.00,,---,0.00,VWS V14.01,2013-03-04 13:59:00,
2013-03-04 08:04:00,56.4,47.5,29.70,South,186,18.0,18.0,72,0.00,,---,0.00,VWS V14.01,2013-03-04 14:04:00,
2013-03-04 08:09:00,56.6,47.7,29.71,SSW,202,8.0,13.0,72,0.00,,---,0.00,VWS V14.01,2013-03-04 14:09:00,
2013-03-04 08:14:00,56.9,47.6,29.71,SSE,150,12.0,14.0,71,0.00,,---,0.00,VWS V14.01,2013-03-04 14:14:00,
2013-03-04 08:19:00,57.1,47.8,29.70,SSE,157,14.0,17.0,71,0.00,,---,0.00,VWS V14.01,2013-03-04 14:19:00,
2013-03-04 08:24:00,57.3,48.0,29.70,SSW,213,13.0,17.0,71,0.00,,---,0.00,VWS V14.01,2013-03-04 14:24:00,
2013-03-04 08:29:00,57.6,47.9,29.70,South,173,9.0,18.0,70,0.00,,---,0.00,VWS V14.01,2013-03-04 14:29:00,
2013-03-04 08:35:00,58.2,48.1,29.69,SSW,199,16.0,21.0,69,0.00,,---,0.00,VWS V14.01,2013-03-04 14:35:00,
2013-03-04 08:40:00,58.5,48.0,29.69,SSW,192,18.0,21.0,68,0.00,,---,0.00,VWS V14.01,2013-03-04 14:40:00,
2013-03-04 08:45:00,58.6,48.1,29.69,South,181,16.0,22.0,68,0.00,,---,0.00,VWS V14.01,2013-03-04 14:45:00,
2013-03-04 08:50:00,58.5,48.0,29.69,SSE,162,15.0,18.0,68,0.00,,---,0.00,VWS V14.01,2013-03-04 14:50:00,
2013-03-04 08:55:00,58.6,48.1,29.69,SSW,201,11.0,20.0,68,0.00,,---,0.00,VWS V14.01,2013-03-04 14:55:00,
2013-03-04 09:00:00,58.8,48.3,29.69,SSW,198,12.0,20.0,68,0.00,,---,0.00,VWS V14.01,2013-03-04 15:00:00,
2013-03-04 09:05:00,59.1,48.2,29.69,SSW,202,10.0,15.0,67,0.00,,---,0.00,VWS V14.01,2013-03-04 15:05:00,
2013-03-04 09:10:00,59.4,48.0,29.69,South,188,16.0,17.0,66,0.00,,---,0.00,VWS V14.01,2013-03-04 15:10:00,
2013-03-04 09:15:00,59.7,48.3,29.69,SSW,204,5.0,18.0,66,0.00,,---,0.00,VWS V14.01,2013-03-04 15:15:00,
2013-03-04 09:20:00,59.9,48.1,29.69,SSW,205,8.0,17.0,65,0.00,,---,0.00,VWS V14.01,2013-03-04 15:20:00,
2013-03-04 09:25:00,60.7,48.5,29.69,SSW,196,9.0,23.0,64,0.00,,---,0.00,VWS V14.01,2013-03-04 15:25:00,
2013-03-04 09:30:00,61.2,48.9,29.69,South,186,12.0,13.0,64,0.00,,---,0.00,VWS V14.01,2013-03-04 15:30:00,
2013-03-04 09:36:00,61.5,48.4,29.69,SW,223,10.0,18.0,62,0.00,,---,0.00,VWS V14.01,2013-03-04 15:36:00,
2013-03-04 09:41:00,61.7,48.6,29.69,SW,229,6.0,17.0,62,0.00,,---,0.00,VWS V14.01,2013-03-04 15:41:00,
2013-03-04 09:46:00,61.8,48.2,29.69,SW,218,13.0,20.0,61,0.00,,---,0.00,VWS V14.01,2013-03-04 15:46:00,
2013-03-04 09:51:00,61.8,48.2,29.68,SW,216,10.0,13.0,61,0.00,,---,0.00,VWS V14.01,2013-03-04 15:51:00,
2013-03-04 09:56:00,62.4,48.3,29.68,SSW,194,18.0,22.0,60,0.00,,---,0.00,VWS V14.01,2013-03-04 15:56:00,
2013-03-04 10:01:00,63.4,48.4,29.68,SSW,198,17.0,19.0,58,0.00,,---,0.00,VWS V14.01,2013-03-04 16:01:00,
2013-03-04 10:06:00,64.0,48.0,29.69,South,190,9.0,18.0,56,0.00,,---,0.00,VWS V14.01,2013-03-04 16:06:00,
2013-03-04 10:11:00,64.2,48.2,29.68,SSW,197,7.0,16.0,56,0.00,,---,0.00,VWS V14.01,2013-03-04 16:11:00,
2013-03-04 10:16:00,64.3,48.3,29.68,South,190,9.0,15.0,56,0.00,,---,0.00,VWS V14.01,2013-03-04 16:16:00,
2013-03-04 10:21:00,64.7,47.7,29.68,South,177,13.0,13.0,54,0.00,,---,0.00,VWS V14.01,2013-03-04 16:21:00,
2013-03-04 10:27:00,65.1,47.1,29.68,SSW,212,12.0,15.0,52,0.00,,---,0.00,VWS V14.01,2013-03-04 16:27:00,
2013-03-04 10:32:00,65.3,46.7,29.68,SSW,200,7.0,13.0,51,0.00,,---,0.00,VWS V14.01,2013-03-04 16:32:00,
2013-03-04 10:37:00,65.5,46.4,29.68,SW,219,7.0,15.0,50,0.00,,---,0.00,VWS V14.01,2013-03-04 16:37:00,
2013-03-04 10:42:00,65.6,46.0,29.68,South,179,7.0,14.0,49,0.00,,---,0.00,VWS V14.01,2013-03-04 16:42:00,
2013-03-04 10:47:00,65.8,46.7,29.68,SSW,213,7.0,14.0,50,0.00,,---,0.00,VWS V14.01,2013-03-04 16:47:00,
2013-03-04 10:52:00,66.0,46.3,29.68,SSW,213,12.0,12.0,49,0.00,,---,0.00,VWS V14.01,2013-03-04 16:52:00,
2013-03-04 10:57:00,66.2,46.0,29.68,SSW,204,7.0,16.0,48,0.00,,---,0.00,VWS V14.01,2013-03-04 16:57:00,
2013-03-04 11:02:00,66.5,46.8,29.68,SSW,204,3.0,11.0,49,0.00,,---,0.00,VWS V14.01,2013-03-04 17:02:00,
2013-03-04 11:07:00,67.1,46.2,29.68,SSW,198,9.0,15.0,47,0.00,,---,0.00,VWS V14.01,2013-03-04 17:07:00,
2013-03-04 11:12:00,68.1,47.1,29.67,South,173,7.0,8.0,47,0.00,,---,0.00,VWS V14.01,2013-03-04 17:12:00,
2013-03-04 11:17:00,68.8,46.0,29.67,South,183,12.0,20.0,44,0.00,,---,0.00,VWS V14.01,2013-03-04 17:17:00,
2013-03-04 11:23:00,68.6,45.8,29.67,South,188,12.0,15.0,44,0.00,,---,0.00,VWS V14.01,2013-03-04 17:23:00,
2013-03-04 11:28:00,69.2,46.4,29.67,South,177,14.0,17.0,44,0.00,,---,0.00,VWS V14.01,2013-03-04 17:28:00,
2013-03-04 11:33:00,69.7,46.8,29.67,SW,233,11.0,16.0,44,0.00,,---,0.00,VWS V14.01,2013-03-04 17:33:00,
2013-03-04 11:38:00,70.3,46.8,29.67,South,181,15.0,15.0,43,0.00,,---,0.00,VWS V14.01,2013-03-04 17:38:00,
2013-03-04 11:43:00,70.1,46.6,29.66,SW,224,7.0,14.0,43,0.00,,---,0.00,VWS V14.01,2013-03-04 17:43:00,
2013-03-04 11:48:00,70.7,47.1,29.66,SSW,211,7.0,18.0,43,0.00,,---,0.00,VWS V14.01,2013-03-04 17:48:00,
2013-03-04 11:53:00,71.2,47.6,29.66,SSW,196,8.0,17.0,43,0.00,,---,0.00,VWS V14.01,2013-03-04 17:53:00,
2013-03-04 11:58:00,72.2,47.9,29.66,SSW,196,4.0,15.0,42,0.00,,---,0.00,VWS V14.01,2013-03-04 17:58:00,
2013-03-04 12:03:00,73.0,47.3,29.66,SSE,165,1.0,15.0,40,0.00,,---,0.00,VWS V14.01,2013-03-04 18:03:00,
2013-03-04 12:08:00,73.2,46.8,29.66,SSW,204,11.0,12.0,39,0.00,,---,0.00,VWS V14.01,2013-03-04 18:08:00,
2013-03-04 12:13:00,74.1,45.5,29.66,South,179,4.0,18.0,36,0.00,,---,0.00,VWS V14.01,2013-03-04 18:13:00,
2013-03-04 12:18:00,75.3,45.0,29.65,South,176,12.0,14.0,34,0.00,,---,0.00,VWS V14.01,2013-03-04 18:18:00,
2013-03-04 12:23:00,75.6,44.5,29.65,SW,222,9.0,17.0,33,0.00,,---,0.00,VWS V14.01,2013-03-04 18:23:00,
2013-03-04 12:29:00,76.0,44.8,29.64,SSW,196,11.0,13.0,33,0.00,,---,0.00,VWS V14.01,2013-03-04 18:29:00,
2013-03-04 12:30:00,76.1,44.9,29.64,South,176,7.0,13.0,33,0.00,,---,0.00,VWS V14.01,2013-03-04 18:30:00,
2013-03-04 12:35:00,76.7,44.7,29.64,SW,221,10.0,17.0,32,0.00,,---,0.00,VWS V14.01,2013-03-04 18:35:00,
2013-03-04 12:40:00,77.3,43.5,29.63,South,177,12.0,20.0,30,0.00,,---,0.00,VWS V14.01,2013-03-04 18:40:00,
2013-03-04 12:45:00,77.9,44.0,29.63,SW,226,12.0,14.0,30,0.00,,---,0.00,VWS V14.01,2013-03-04 18:45:00,
2013-03-04 12:50:00,78.5,43.6,29.62,SW,231,3.0,13.0,29,0.00,,---,0.00,VWS V14.01,2013-03-04 18:50:00,
2013-03-04 12:55:00,79.3,42.5,29.62,SSW,204,9.0,15.0,27,0.00,,---,0.00,VWS V14.01,2013-03-04 18:55:00,
2013-03-04 13:00:00,79.5,41.7,29.62,SSW,213,9.0,15.0,26,0.00,,---,0.00,VWS V14.01,2013-03-04 19:00:00,
2013-03-04 13:05:00,79.1,42.3,29.62,SSW,199,7.0,17.0,27,0.00,,---,0.00,VWS V14.01,2013-03-04 19:05:00,
2013-03-04 13:11:00,78.9,42.1,29.62,SSW,202,8.0,15.0,27,0.00,,---,0.00,VWS V14.01,2013-03-04 19:11:00,
2013-03-04 13:16:00,79.0,42.2,29.61,SSW,193,7.0,19.0,27,0.00,,---,0.00,VWS V14.01,2013-03-04 19:16:00,
2013-03-04 13:21:00,78.7,41.9,29.61,South,173,10.0,19.0,27,0.00,,---,0.00,VWS V14.01,2013-03-04 19:21:00,
2013-03-04 13:26:00,79.2,42.4,29.61,South,178,14.0,15.0,27,0.00,,---,0.00,VWS V14.01,2013-03-04 19:26:00,
2013-03-04 13:31:00,79.8,41.9,29.61,SSW,207,7.0,15.0,26,0.00,,---,0.00,VWS V14.01,2013-03-04 19:31:00,
2013-03-04 13:36:00,80.3,42.3,29.60,SSW,213,8.0,14.0,26,0.00,,---,0.00,VWS V14.01,2013-03-04 19:36:00,
2013-03-04 13:41:00,80.7,42.7,29.60,SSW,205,7.0,13.0,26,0.00,,---,0.00,VWS V14.01,2013-03-04 19:41:00,
2013-03-04 13:46:00,81.3,42.2,29.59,South,180,7.0,11.0,25,0.00,,---,0.00,VWS V14.01,2013-03-04 19:46:00,
2013-03-04 13:51:00,81.4,41.2,29.60,SSW,203,11.0,19.0,24,0.00,,---,0.00,VWS V14.01,2013-03-04 19:51:00,
2013-03-04 13:56:00,81.9,40.5,29.59,SSW,198,9.0,11.0,23,0.00,,---,0.00,VWS V14.01,2013-03-04 19:56:00,
2013-03-04 14:01:00,82.3,38.5,29.59,SSW,212,7.0,13.0,21,0.00,,---,0.00,VWS V14.01,2013-03-04 20:01:00,
2013-03-04 14:06:00,82.7,37.6,29.59,SW,236,6.0,17.0,20,0.00,,---,0.00,VWS V14.01,2013-03-04 20:06:00,
2013-03-04 14:11:00,83.0,37.8,29.59,SSW,198,11.0,13.0,20,0.00,,---,0.00,VWS V14.01,2013-03-04 20:11:00,
2013-03-04 14:16:00,83.4,38.2,29.59,SSW,200,9.0,16.0,20,0.00,,---,0.00,VWS V14.01,2013-03-04 20:16:00,
2013-03-04 14:21:00,84.0,37.3,29.58,SSW,208,12.0,20.0,19,0.00,,---,0.00,VWS V14.01,2013-03-04 20:21:00,
2013-03-04 14:27:00,84.1,37.4,29.58,SW,236,15.0,15.0,19,0.00,,---,0.00,VWS V14.01,2013-03-04 20:27:00,
2013-03-04 14:32:00,84.2,40.1,29.58,SW,225,11.0,16.0,21,0.00,,---,0.00,VWS V14.01,2013-03-04 20:32:00,
2013-03-04 14:37:00,84.4,40.2,29.58,SW,234,9.0,13.0,21,0.00,,---,0.00,VWS V14.01,2013-03-04 20:37:00,
2013-03-04 14:42:00,84.6,37.8,29.58,SSW,197,13.0,16.0,19,0.00,,---,0.00,VWS V14.01,2013-03-04 20:42:00,
2013-03-04 14:47:00,84.8,35.2,29.57,South,184,10.0,17.0,17,0.00,,---,0.00,VWS V14.01,2013-03-04 20:47:00,
2013-03-04 14:52:00,84.9,36.7,29.57,SW,228,8.0,15.0,18,0.00,,---,0.00,VWS V14.01,2013-03-04 20:52:00,
2013-03-04 14:57:00,85.0,35.3,29.57,West,268,11.0,14.0,17,0.00,,---,0.00,VWS V14.01,2013-03-04 20:57:00,
2013-03-04 15:02:00,85.3,35.6,29.57,SW,232,11.0,20.0,17,0.00,,---,0.00,VWS V14.01,2013-03-04 21:02:00,
2013-03-04 15:07:00,85.2,35.5,29.57,SSW,205,10.0,17.0,17,0.00,,---,0.00,VWS V14.01,2013-03-04 21:07:00,
2013-03-04 15:12:00,85.1,33.9,29.57,SSW,202,15.0,18.0,16,0.00,,---,0.00,VWS V14.01,2013-03-04 21:12:00,
2013-03-04 15:17:00,85.3,34.1,29.57,SW,225,12.0,21.0,16,0.00,,---,0.00,VWS V14.01,2013-03-04 21:17:00,
2013-03-04 15:22:00,85.6,34.3,29.57,South,182,7.0,15.0,16,0.00,,---,0.00,VWS V14.01,2013-03-04 21:22:00,
2013-03-04 15:28:00,86.0,36.2,29.57,SW,218,3.0,12.0,17,0.00,,---,0.00,VWS V14.01,2013-03-04 21:28:00,
2013-03-04 15:33:00,86.1,34.7,29.57,SW,234,7.0,15.0,16,0.00,,---,0.00,VWS V14.01,2013-03-04 21:33:00,
2013-03-04 15:38:00,86.2,34.8,29.57,SW,223,7.0,10.0,16,0.00,,---,0.00,VWS V14.01,2013-03-04 21:38:00,
2013-03-04 15:43:00,86.4,37.9,29.57,South,188,6.0,15.0,18,0.00,,---,0.00,VWS V14.01,2013-03-04 21:43:00,
2013-03-04 15:48:00,85.2,48.5,29.57,South,176,8.0,20.0,28,0.00,,---,0.00,VWS V14.01,2013-03-04 21:48:00,
2013-03-04 15:53:00,83.7,49.9,29.57,SSE,149,8.0,17.0,31,0.00,,---,0.00,VWS V14.01,2013-03-04 21:53:00,
2013-03-04 15:58:00,82.8,50.0,29.57,South,189,14.0,19.0,32,0.00,,---,0.00,VWS V14.01,2013-03-04 21:58:00,
2013-03-04 16:03:00,82.4,49.6,29.57,SSW,192,6.0,18.0,32,0.00,,---,0.00,VWS V14.01,2013-03-04 22:03:00,
2013-03-04 16:08:00,81.8,49.1,29.57,South,186,9.0,14.0,32,0.00,,---,0.00,VWS V14.01,2013-03-04 22:08:00,
2013-03-04 16:13:00,81.0,50.0,29.57,SSW,194,7.0,16.0,34,0.00,,---,0.00,VWS V14.01,2013-03-04 22:13:00,
2013-03-04 16:18:00,80.9,50.7,29.57,SSW,196,7.0,12.0,35,0.00,,---,0.00,VWS V14.01,2013-03-04 22:18:00,
2013-03-04 16:23:00,80.9,49.9,29.57,SSW,204,7.0,23.0,34,0.00,,---,0.00,VWS V14.01,2013-03-04 22:23:00,
2013-03-04 16:28:00,80.7,50.5,29.57,South,186,13.0,18.0,35,0.00,,---,0.00,VWS V14.01,2013-03-04 22:28:00,
2013-03-04 16:33:00,80.5,50.4,29.57,SSW,195,19.0,19.0,35,0.00,,---,0.00,VWS V14.01,2013-03-04 22:33:00,
2013-03-04 16:38:00,80.5,50.4,29.57,South,191,12.0,17.0,35,0.00,,---,0.00,VWS V14.01,2013-03-04 22:38:00,
2013-03-04 16:43:00,80.5,50.4,29.57,SSW,204,8.0,13.0,35,0.00,,---,0.00,VWS V14.01,2013-03-04 22:43:00,
2013-03-04 16:49:00,80.3,50.9,29.57,South,184,11.0,14.0,36,0.00,,---,0.00,VWS V14.01,2013-03-04 22:49:00,
2013-03-04 16:54:00,80.0,50.7,29.57,South,188,11.0,18.0,36,0.00,,---,0.00,VWS V14.01,2013-03-04 22:54:00,
2013-03-04 16:59:00,79.8,50.5,29.57,South,174,13.0,14.0,36,0.00,,---,0.00,VWS V14.01,2013-03-04 22:59:00,
2013-03-04 17:04:00,79.6,50.3,29.57,SSW,204,12.0,19.0,36,0.00,,---,0.00,VWS V14.01,2013-03-04 23:04:00,
2013-03-04 17:09:00,79.3,50.8,29.57,SSW,209,8.0,18.0,37,0.00,,---,0.00,VWS V14.01,2013-03-04 23:09:00,
2013-03-04 17:14:00,79.2,50.7,29.58,South,189,11.0,13.0,37,0.00,,---,0.00,VWS V14.01,2013-03-04 23:14:00,
2013-03-04 17:19:00,78.8,50.4,29.58,SSE,153,9.0,21.0,37,0.00,,---,0.00,VWS V14.01,2013-03-04 23:19:00,
2013-03-04 17:24:00,78.5,50.1,29.58,SSW,203,11.0,20.0,37,0.00,,---,0.00,VWS V14.01,2013-03-04 23:24:00,
2013-03-04 17:29:00,78.2,50.5,29.58,SSW,196,9.0,16.0,38,0.00,,---,0.00,VWS V14.01,2013-03-04 23:29:00,
2013-03-04 17:34:00,77.9,50.3,29.58,SE,136,12.0,15.0,38,0.00,,---,0.00,VWS V14.01,2013-03-04 23:34:00,
2013-03-04 17:39:00,77.8,50.2,29.58,SSE,161,15.0,15.0,38,0.00,,---,0.00,VWS V14.01,2013-03-04 23:39:00,
2013-03-04 17:44:00,77.5,49.9,29.59,SSW,207,6.0,12.0,38,0.00,,---,0.00,VWS V14.01,2013-03-04 23:44:00,
2013-03-04 17:49:00,77.2,49.7,29.59,SSE,163,4.0,20.0,38,0.00,,---,0.00,VWS V14.01,2013-03-04 23:49:00,
2013-03-04 17:54:00,76.9,49.4,29.59,SW,227,8.0,13.0,38,0.00,,---,0.00,VWS V14.01,2013-03-04 23:54:00,
2013-03-04 18:00:00,76.7,49.9,29.59,South,172,7.0,14.0,39,0.00,,---,0.00,VWS V14.01,2013-03-05 00:00:00,
2013-03-04 18:05:00,76.4,49.6,29.59,South,173,7.0,9.0,39,0.00,,---,0.00,VWS V14.01,2013-03-05 00:05:00,
2013-03-04 18:10:00,76.2,49.5,29.58,SSE,163,11.0,12.0,39,0.00,,---,0.00,VWS V14.01,2013-03-05 00:10:00,
2013-03-04 18:15:00,75.9,49.9,29.59,South,186,9.0,10.0,40,0.00,,---,0.00,VWS V14.01,2013-03-05 00:15:00,
2013-03-04 18:20:00,75.5,49.5,29.59,South,185,5.0,9.0,40,0.00,,---,0.00,VWS V14.01,2013-03-05 00:20:00,
2013-03-04 18:25:00,75.2,49.2,29.59,South,190,5.0,8.0,40,0.00,,---,0.00,VWS V14.01,2013-03-05 00:25:00,
2013-03-04 18:30:00,74.9,49.6,29.59,SSW,200,6.0,9.0,41,0.00,,---,0.00,VWS V14.01,2013-03-05 00:30:00,
2013-03-04 18:35:00,74.6,49.4,29.59,SSE,161,10.0,10.0,41,0.00,,---,0.00,VWS V14.01,2013-03-05 00:35:00,
2013-03-04 18:40:00,74.4,49.8,29.59,South,184,2.0,7.0,42,0.00,,---,0.00,VWS V14.01,2013-03-05 00:40:00,
2013-03-04 18:45:00,74.1,49.6,29.59,SSW,194,2.0,6.0,42,0.00,,---,0.00,VWS V14.01,2013-03-05 00:45:00,
2013-03-04 18:51:00,73.8,49.9,29.59,South,172,4.0,6.0,43,0.00,,---,0.00,VWS V14.01,2013-03-05 00:51:00,
2013-03-04 18:56:00,73.4,49.6,29.59,SSE,155,3.0,5.0,43,0.00,,---,0.00,VWS V14.01,2013-03-05 00:56:00,
2013-03-04 19:01:00,73.0,49.8,29.59,SSE,156,1.0,5.0,44,0.00,,---,0.00,VWS V14.01,2013-03-05 01:01:00,
2013-03-04 19:06:00,72.6,49.5,29.59,SSE,158,3.0,6.0,44,0.00,,---,0.00,VWS V14.01,2013-03-05 01:06:00,
2013-03-04 19:11:00,72.3,49.2,29.59,SSE,167,3.0,5.0,44,0.00,,---,0.00,VWS V14.01,2013-03-05 01:11:00,
2013-03-04 19:16:00,72.0,49.5,29.59,SSE,147,2.0,4.0,45,0.00,,---,0.00,VWS V14.01,2013-03-05 01:16:00,
2013-03-04 19:21:00,71.8,49.3,29.60,SSE,166,1.0,4.0,45,0.00,,---,0.00,VWS V14.01,2013-03-05 01:21:00,
2013-03-04 19:26:00,71.4,49.6,29.60,South,187,6.0,7.0,46,0.00,,---,0.00,VWS V14.01,2013-03-05 01:26:00,
2013-03-04 19:31:00,71.2,49.4,29.60,South,169,2.0,5.0,46,0.00,,---,0.00,VWS V14.01,2013-03-05 01:31:00,
2013-03-04 19:36:00,71.0,49.2,29.60,SSE,148,4.0,4.0,46,0.00,,---,0.00,VWS V14.01,2013-03-05 01:36:00,
2013-03-04 19:41:00,70.7,49.5,29.60,South,177,2.0,6.0,47,0.00,,---,0.00,VWS V14.01,2013-03-05 01:41:00,
2013-03-04 19:46:00,70.7,49.5,29.60,SSW,194,5.0,7.0,47,0.00,,---,0.00,VWS V14.01,2013-03-05 01:46:00,
2013-03-04 19:52:00,70.8,49.6,29.60,SSW,204,6.0,8.0,47,0.00,,---,0.00,VWS V14.01,2013-03-05 01:52:00,
2013-03-04 19:57:00,71.1,49.9,29.60,South,190,5.0,10.0,47,0.00,,---,0.00,VWS V14.01,2013-03-05 01:57:00,
2013-03-04 20:02:00,71.2,50.0,29.60,South,175,5.0,8.0,47,0.00,,---,0.00,VWS V14.01,2013-03-05 02:02:00,
2013-03-04 20:07:00,71.3,50.0,29.60,SSE,165,2.0,9.0,47,0.00,,---,0.00,VWS V14.01,2013-03-05 02:07:00,
2013-03-04 20:12:00,71.3,50.0,29.60,South,183,6.0,7.0,47,0.00,,---,0.00,VWS V14.01,2013-03-05 02:12:00,
2013-03-04 20:17:00,71.3,50.0,29.60,South,187,6.0,6.0,47,0.00,,---,0.00,VWS V14.01,2013-03-05 02:17:00,
2013-03-04 20:22:00,71.4,50.1,29.60,SSW,200,4.0,9.0,47,0.00,,---,0.00,VWS V14.01,2013-03-05 02:22:00,
2013-03-04 20:27:00,71.6,49.8,29.61,South,169,3.0,12.0,46,0.00,,---,0.00,VWS V14.01,2013-03-05 02:27:00,
2013-03-04 20:32:00,71.7,49.8,29.60,South,174,4.0,7.0,46,0.00,,---,0.00,VWS V14.01,2013-03-05 02:32:00,
2013-03-04 20:37:00,71.9,49.4,29.61,South,189,11.0,11.0,45,0.00,,---,0.00,VWS V14.01,2013-03-05 02:37:00,
2013-03-04 20:42:00,72.2,49.7,29.61,South,185,13.0,13.0,45,0.00,,---,0.00,VWS V14.01,2013-03-05 02:42:00,
2013-03-04 20:47:00,72.5,50.0,29.61,South,190,4.0,9.0,45,0.00,,---,0.00,VWS V14.01,2013-03-05 02:47:00,
2013-03-04 20:52:00,72.4,49.9,29.61,South,191,13.0,13.0,45,0.00,,---,0.00,VWS V14.01,2013-03-05 02:52:00,
2013-03-04 20:58:00,72.5,49.4,29.61,SSW,199,9.0,13.0,44,0.00,,---,0.00,VWS V14.01,2013-03-05 02:58:00,
2013-03-04 21:03:00,72.6,49.5,29.61,South,190,7.0,17.0,44,0.00,,---,0.00,VWS V14.01,2013-03-05 03:03:00,
2013-03-04 21:08:00,72.5,50.0,29.61,South,174,10.0,13.0,45,0.00,,---,0.00,VWS V14.01,2013-03-05 03:08:00,
2013-03-04 21:13:00,72.3,49.8,29.62,SSW,211,6.0,10.0,45,0.00,,---,0.00,VWS V14.01,2013-03-05 03:13:00,
2013-03-04 21:18:00,72.3,49.8,29.62,SSW,195,5.0,9.0,45,0.00,,---,0.00,VWS V14.01,2013-03-05 03:18:00,
2013-03-04 21:23:00,72.1,49.6,29.62,SSW,193,12.0,12.0,45,0.00,,---,0.00,VWS V14.01,2013-03-05 03:23:00,
2013-03-04 21:28:00,72.0,49.5,29.62,SSW,205,10.0,13.0,45,0.00,,---,0.00,VWS V14.01,2013-03-05 03:28:00,
2013-03-04 21:33:00,71.8,49.3,29.62,SSW,207,3.0,7.0,45,0.00,,---,0.00,VWS V14.01,2013-03-05 03:33:00,
2013-03-04 21:38:00,71.5,49.7,29.62,South,176,5.0,9.0,46,0.00,,---,0.00,VWS V14.01,2013-03-05 03:38:00,
2013-03-04 21:43:00,71.2,49.4,29.62,SSW,199,5.0,6.0,46,0.00,,---,0.00,VWS V14.01,2013-03-05 03:43:00,
2013-03-04 21:48:00,70.9,49.7,29.63,SSE,154,5.0,9.0,47,0.00,,---,0.00,VWS V14.01,2013-03-05 03:48:00,
2013-03-04 21:53:00,70.8,49.6,29.63,South,179,7.0,7.0,47,0.00,,---,0.00,VWS V14.01,2013-03-05 03:53:00,
2013-03-04 21:59:00,70.6,49.4,29.63,SSE,153,8.0,8.0,47,0.00,,---,0.00,VWS V14.01,2013-03-05 03:59:00,
2013-03-04 22:04:00,70.4,49.8,29.63,SE,142,1.0,7.0,48,0.00,,---,0.00,VWS V14.01,2013-03-05 04:04:00,
2013-03-04 22:09:00,70.1,49.5,29.64,SSW,199,4.0,7.0,48,0.00,,---,0.00,VWS V14.01,2013-03-05 04:09:00,
2013-03-04 22:14:00,69.8,49.8,29.64,South,185,1.0,8.0,49,0.00,,---,0.00,VWS V14.01,2013-03-05 04:14:00,
2013-03-04 22:19:00,69.5,49.5,29.64,South,181,2.0,9.0,49,0.00,,---,0.00,VWS V14.01,2013-03-05 04:19:00,
2013-03-04 22:24:00,69.2,49.8,29.64,SSE,167,2.0,7.0,50,0.00,,---,0.00,VWS V14.01,2013-03-05 04:24:00,
2013-03-04 22:29:00,68.9,50.0,29.64,SE,146,3.0,7.0,51,0.00,,---,0.00,VWS V14.01,2013-03-05 04:29:00,
2013-03-04 22:34:00,68.7,49.9,29.64,South,186,4.0,10.0,51,0.00,,---,0.00,VWS V14.01,2013-03-05 04:34:00,
2013-03-04 22:39:00,68.3,50.0,29.64,South,169,2.0,7.0,52,0.00,,---,0.00,VWS V14.01,2013-03-05 04:39:00,
2013-03-04 22:44:00,68.0,50.2,29.64,South,175,3.0,7.0,53,0.00,,---,0.00,VWS V14.01,2013-03-05 04:44:00,
2013-03-04 22:49:00,67.7,50.5,29.65,South,184,2.0,4.0,54,0.00,,---,0.00,VWS V14.01,2013-03-05 04:49:00,
2013-03-04 22:54:00,67.5,50.3,29.66,SSW,197,0.0,1.0,54,0.00,,---,0.00,VWS V14.01,2013-03-05 04:54:00,
2013-03-04 22:59:00,67.0,50.3,29.67,WNW,286,3.0,6.0,55,0.00,,---,0.00,VWS V14.01,2013-03-05 04:59:00,
2013-03-04 23:00:00,67.0,50.3,29.67,NW,304,3.0,6.0,55,0.00,,---,0.00,VWS V14.01,2013-03-05 05:00:00,
2013-03-04 23:01:00,66.9,50.2,29.67,NW,309,2.0,6.0,55,0.00,,---,0.00,VWS V14.01,2013-03-05 05:01:00,
2013-03-04 23:02:00,66.8,50.1,29.67,WNW,299,0.0,6.0,55,0.00,,---,0.00,VWS V14.01,2013-03-05 05:02:00,
2013-03-04 23:07:00,66.5,49.8,29.67,WNW,286,0.0,4.0,55,0.00,,---,0.00,VWS V14.01,2013-03-05 05:07:00,
2013-03-04 23:12:00,66.4,50.2,29.68,West,269,6.0,6.0,56,0.00,,---,0.00,VWS V14.01,2013-03-05 05:12:00,
2013-03-04 23:17:00,66.5,49.8,29.70,WNW,294,3.0,7.0,55,0.00,,---,0.00,VWS V14.01,2013-03-05 05:17:00,
2013-03-04 23:22:00,66.6,50.0,29.70,West,273,2.0,9.0,55,0.00,,---,0.00,VWS V14.01,2013-03-05 05:22:00,
2013-03-04 23:27:00,66.7,49.5,29.70,West,273,4.0,8.0,54,0.00,,---,0.00,VWS V14.01,2013-03-05 05:27:00,
2013-03-04 23:32:00,66.8,49.6,29.71,SW,236,2.0,4.0,54,0.00,,---,0.00,VWS V14.01,2013-03-05 05:32:00,
2013-03-04 23:37:00,67.0,49.8,29.70,SW,236,0.0,1.0,54,0.00,,---,0.00,VWS V14.01,2013-03-05 05:37:00,
2013-03-04 23:42:00,67.0,49.8,29.70,SW,236,0.0,0.0,54,0.00,,---,0.00,VWS V14.01,2013-03-05 05:42:00,
2013-03-04 23:47:00,66.8,49.6,29.71,SW,236,2.0,2.0,54,0.00,,---,0.00,VWS V14.01,2013-03-05 05:47:00,
2013-03-04 23:53:00,66.5,49.4,29.71,NW,322,4.0,9.0,54,0.00,,---,0.00,VWS V14.01,2013-03-05 05:53:00,
2013-03-04 23:58:00,66.6,47.9,29.73,North,355,11.0,23.0,51,0.00,,---,0.00,VWS V14.01,2013-03-05 05:58:00,